This demonstration page uses our WeatherBlox Daily Observations layout. Learn more.

Left ArrowRight Arrow

38.80484, -77.04692

Hourly Observations for May 5, 2019

Temp ( °F °C ) Dew Point ( °F °C ) Humidity (%) Winds ( mph kmh ) Pressure ( in mb ) Visibility ( mi km ) Precip ( " mm )
12:01 am 00:01 Cloudy with Strong Thunderstorms 68 20 65 18.3 90 90 NNE 6 9 29.81 1009 1 2 0.25 6.35
12:07 am 00:07 Cloudy with Thunderstorms 67 19.4 64 17.8 91 91 NNW 6 9 29.80 1009 3 4 0.38 9.65
12:11 am 00:11 Cloudy with Light Rain 68 20 65 18.3 90 90 NNW 3 6 29.80 1009 3 5 0.38 9.65
12:15 am 00:15 Cloudy with Light Rain 68 20 65 18.3 90 90 N N/A 29.80 1009 4 6 0.39 9.91
12:52 am 00:52 Cloudy with Rain 68 20 65 18.3 90 90 E 5 7 29.78 1009 4 6 0.44 11.18
1:20 am 01:20 Cloudy with Heavy Rain 68 20 65 18.3 90 90 N N/A 29.79 1009 3 4 0.06 1.52
1:31 am 01:31 Cloudy with Rain 68 20 64 17.8 87 87 ENE 5 7 29.78 1008 3 5 0.10 2.54
1:52 am 01:52 Cloudy with Light Rain 67 19.4 64 17.8 91 91 N 5 7 29.77 1008 6 10 0.12 3.05
2:30 am 02:30 Cloudy with Light Rain 68 20 65 18.3 90 90 NE 5 7 29.76 1008 5 8 N/A
2:40 am 02:40 Cloudy with Rain 68 20 65 18.3 90 90 N N/A 29.76 1008 3 5 0.01 0.25
2:43 am 02:43 Cloudy with Rain 68 20 65 18.3 90 90 NE 5 7 29.75 1007 2 3 0.02 0.51
2:52 am 02:52 Cloudy with Light Rain 67 19.4 64 17.8 91 91 ENE 7 11 29.74 1007 2 3 0.09 2.29
2:58 am 02:58 Cloudy with Light Rain 67 19.4 64 17.8 91 91 NE 7 11 29.74 1007 4 6 N/A
3:16 am 03:16 Cloudy with Light Rain 67 19.4 64 17.8 91 91 NE 6 9 29.74 1007 4 6 N/A
3:52 am 03:52 Cloudy with Mist and Fog 67 19.4 64 17.8 91 91 NE 5 7 29.72 1007 4 6 N/A
4:52 am 04:52 Cloudy with Mist and Fog 67 19.4 64 17.8 91 91 NNE 6 9 29.73 1007 5 8 N/A
5:52 am 05:52 Cloudy with Light Rain 67 19.4 64 17.8 91 91 NE 5 7 29.72 1007 3 5 0.01 0.25
6:21 am 06:21 Cloudy with Light Rain 67 19.4 64 17.8 91 91 NE 3 6 29.72 1006 3 4 N/A
6:52 am 06:52 Cloudy with Light Rain 67 19.4 64 17.8 91 91 NE 6 9 29.72 1006 3 4 0.02 0.51
7:49 am 07:49 Cloudy with Light Rain 66 19 64 18 94 94 ESE 3 6 29.74 1007 3 5 0.04 1.02
7:52 am 07:52 Cloudy with Light Rain 67 19.4 64 17.8 91 91 N N/A 29.73 1007 3 5 0.04 1.02
8:52 am 08:52 Cloudy with Light Rain 67 19.4 64 17.8 91 91 NE 8 13 29.72 1007 9 14 0.03 0.76
9:43 am 09:43 Cloudy with Rain 67 19.4 63 17.2 87 87 E 7 11 29.72 1006 7 11 0.04 1.02
9:52 am 09:52 Cloudy with Light Rain 66 18.9 63 17.2 90 90 ENE 9 15 29.72 1006 6 10 0.06 1.52
10:05 am 10:05 Cloudy with Rain 66 18.9 63 17.2 90 90 ESE 5 7 29.72 1006 6 10 0.02 0.51
10:52 am 10:52 Cloudy with Light Rain 66 18.9 62 16.7 87 87 E 10 17 29.70 1006 9 14 0.05 1.27
11:52 am 11:52 Cloudy 66 18.9 62 16.7 87 87 ENE 10 17 29.69 1006 10 16 N/A
12:49 pm 12:49 Cloudy 64 18 61 16 88 88 ENE 10 17 29.69 1005 10 16 N/A
12:52 pm 12:52 Cloudy 65 18.3 62 16.7 90 90 ENE 10 17 29.68 1005 10 16 N/A
1:52 pm 13:52 Cloudy with Light Rain 64 17.8 61 16.1 90 90 ENE 16 26 29.67 1005 4 6 0.01 0.25
2:43 pm 14:43 Cloudy with Rain 63 17.2 60 15.6 90 90 ENE 15 24 29.67 1005 3 5 0.07 1.78
2:52 pm 14:52 Cloudy with Light Rain 63 17.2 60 15.6 90 90 NE 14 22 29.67 1005 6 10 0.08 2.03
3:52 pm 15:52 Cloudy 63 17.2 59 15 87 87 NE 10 17 29.66 1004 10 16 0.02 0.51
4:52 pm 16:52 Cloudy with Rain 62 16.7 59 15 90 90 NNE 12 19 29.66 1005 7 11 0.04 1.02
5:46 pm 17:46 Cloudy with Rain 61 16 57 14 88 88 N 14 22 29.71 1006 5 8 0.05 1.27
5:52 pm 17:52 Cloudy with Rain 62 16.7 58 14.4 86 86 NNE 14 22 29.70 1006 4 6 0.05 1.27
5:58 pm 17:58 Cloudy with Rain 62 16.7 58 14.4 86 86 NNE 17 28 29.70 1006 4 6 0.01 0.25
6:52 pm 18:52 Cloudy with Light Rain 61 16.1 57 13.9 87 87 N 13 20 29.72 1006 10 16 0.04 1.02
6:58 pm 18:58 Cloudy with Light Rain 62 16.7 57 13.9 84 84 N 14 22 29.72 1006 10 16 N/A
7:52 pm 19:52 Mostly Cloudy 61 16.1 56 13.3 84 84 NNE 17 28 29.74 1007 10 16 N/A
8:09 pm 20:09 Mostly Cloudy 60 15.6 55 12.8 84 84 NNE 16 26 29.74 1007 10 16 N/A
8:32 pm 20:32 Mostly Cloudy 60 15.6 55 12.8 84 84 NNE 17 28 29.76 1008 10 16 N/A
8:42 pm 20:42 Cloudy 60 15.6 55 12.8 84 84 NNE 12 19 29.77 1008 10 16 N/A
8:52 pm 20:52 Cloudy 60 15.6 55 12.8 84 84 NNE 13 20 29.77 1008 10 16 N/A
9:52 pm 21:52 Cloudy 60 15.6 54 12.2 80 80 NNE 15 24 29.80 1009 10 16 N/A
10:06 pm 22:06 Cloudy 60 15.6 53 11.7 78 78 NE 16 26 29.80 1009 10 16 N/A
10:15 pm 22:15 Cloudy 60 15.6 53 11.7 78 78 NNE 16 26 29.81 1009 10 16 N/A
10:52 pm 22:52 Cloudy 60 15.6 53 11.7 78 78 N 12 19 29.81 1010 10 16 N/A
11:52 pm 23:52 Cloudy 60 15.6 54 12.2 80 80 N 14 22 29.83 1010 10 16 N/A

Powered by AerisWeather